This is the latest recevied weather packets stored in our database for station/object N5UKZ-WX. If no packets are shown the sender has not sent any weather packets the latest 10 day(s).
| Time | Temp. | Humidity | Pressure | Rain* | Wind** | Luminosity | Snow |
|---|---|---|---|---|---|---|---|
| 1787435620 | 37.78° C | 45% | 1013.2 hPa | 0 mm | - | - | - |
| 1787434719 | 37.78° C | 45% | 1013.2 hPa | 0 mm | - | - | - |
| 1787433789 | 37.78° C | 46% | 1013.6 hPa | 0 mm | - | - | - |
| 1787432889 | 37.78° C | 46% | 1013.6 hPa | 0 mm | - | - | - |
| 1787431959 | 39.44° C | 46% | 1013.6 hPa | 0 mm | - | - | - |
| 1787431059 | 38.89° C | 46% | 1013.9 hPa | 0 mm | - | - | - |
| 1787430159 | 38.89° C | 44% | 1014.3 hPa | 0 mm | - | - | - |
| 1787429259 | 39.44° C | 46% | 1014.6 hPa | 0 mm | - | - | - |
| 1787428359 | 38.89° C | 46% | 1014.6 hPa | 0 mm | - | - | - |
| 1787427429 | 38.33° C | 47% | 1014.9 hPa | 0 mm | - | - | - |
| 1787426499 | 38.33° C | 48% | 1015.3 hPa | 0 mm | - | - | - |
| 1787425599 | 38.33° C | 49% | 1015.3 hPa | 0 mm | - | - | - |
| 1787424669 | 37.78° C | 51% | 1015.3 hPa | 0 mm | - | - | - |
| 1787423739 | 37.78° C | 52% | 1015.6 hPa | 0 mm | - | - | - |
| 1787422809 | 37.22° C | 54% | 1016 hPa | 0 mm | - | - | - |
| 1787421909 | 37.22° C | 56% | 1016 hPa | 0 mm | - | - | - |
| 1787421009 | 35.56° C | 56% | 1016 hPa | 0 mm | - | - | - |
| 1787420079 | 36.67° C | 58% | 1016.3 hPa | 0 mm | - | - | - |
| 1787419179 | 35.56° C | 60% | 1016.3 hPa | 0 mm | - | - | - |
| 1787418249 | 35° C | 62% | 1016.6 hPa | 0 mm | - | - | - |
| 1787417319 | 34.44° C | 63% | 1016.6 hPa | 0 mm | - | - | - |
| 1787416419 | 34.44° C | 66% | 1017 hPa | 0 mm | - | - | - |
| 1787415489 | 33.33° C | 68% | 1017 hPa | 0 mm | - | - | - |
| 1787414559 | 32.78° C | 70% | 1016.6 hPa | 0 mm | - | - | - |
| 1787413629 | 31.67° C | 72% | 1016.3 hPa | 0 mm | - | - | - |
* Rain latest hour (hover to see other rain measurements)
** Current wind speed in m/s (hover to see current wind gust speed)